This is the latest recevied weather packets stored in our database for station/object WB0OCV. If no packets are shown the sender has not sent any weather packets the latest 1 day(s).
| Time | Temp. | Humidity | Pressure | Rain* | Wind** | Luminosity | Snow |
|---|---|---|---|---|---|---|---|
| 1778046621 | 13.33° C | 93% | 1016 hPa | 0 mm | 0.45 m/s, 133° | 0 W/m² | - |
| 1778046319 | 13.33° C | 92% | 1016.3 hPa | 0 mm | 0.45 m/s, 109° | 0 W/m² | - |
| 1778046014 | 13.33° C | 93% | 1016.2 hPa | 0 mm | 0.89 m/s, 182° | 0 W/m² | - |
| 1778045712 | 13.33° C | 92% | 1016.2 hPa | 0 mm | 0.89 m/s, 349° | 0 W/m² | - |
| 1778045410 | 13.33° C | 92% | 1016.2 hPa | 0 mm | 0.89 m/s, 139° | 0 W/m² | - |
| 1778045109 | 13.33° C | 92% | 1016.2 hPa | 0 mm | 0.45 m/s, 169° | 0 W/m² | - |
| 1778044806 | 13.33° C | 92% | 1016.1 hPa | 0 mm | 0.89 m/s, 219° | 0 W/m² | - |
| 1778044502 | 13.33° C | 91% | 1016.4 hPa | 0 mm | 0.45 m/s, 123° | 0 W/m² | - |
| 1778044199 | 13.33° C | 91% | 1016.3 hPa | 0 mm | 0.45 m/s, 139° | 0 W/m² | - |
| 1778043897 | 13.33° C | 91% | 1016.5 hPa | 0 mm | 0.89 m/s, 208° | 0 W/m² | - |
| 1778043595 | 13.33° C | 91% | 1016.4 hPa | 0 mm | 0.89 m/s, 159° | 0 W/m² | - |
| 1778043291 | 13.33° C | 90% | 1016.2 hPa | 0 mm | 0.89 m/s, 206° | 0 W/m² | - |
| 1778042988 | 13.33° C | 90% | 1016.4 hPa | 0 mm | 0.89 m/s, 121° | 0 W/m² | - |
| 1778042686 | 13.33° C | 90% | 1016.3 hPa | 0 mm | 0.89 m/s, 224° | 0 W/m² | - |
| 1778042382 | 13.33° C | 90% | 1016.4 hPa | 0 mm | 0.45 m/s, 140° | 0 W/m² | - |
| 1778042080 | 13.33° C | 89% | 1016.3 hPa | 0 mm | 0.89 m/s, 229° | 0 W/m² | - |
| 1778041777 | 13.89° C | 89% | 1016.3 hPa | 0 mm | 0.89 m/s, 193° | 0 W/m² | - |
| 1778041477 | 13.89° C | 89% | 1016.3 hPa | 0 mm | 1.79 m/s, 224° | 0 W/m² | - |
| 1778041174 | 13.89° C | 89% | 1016.2 hPa | 0 mm | 0 m/s | 0 W/m² | - |
| 1778040872 | 13.89° C | 89% | 1016.4 hPa | 0 mm | 1.34 m/s, 204° | 0 W/m² | - |
| 1778040569 | 13.89° C | 88% | 1016.3 hPa | 0 mm | 0.45 m/s, 127° | 0 W/m² | - |
| 1778040266 | 13.89° C | 88% | 1016.3 hPa | 0 mm | 0.45 m/s, 240° | 0 W/m² | - |
| 1778039962 | 13.89° C | 88% | 1016.4 hPa | 0 mm | 1.79 m/s, 236° | 0 W/m² | - |
| 1778039660 | 13.89° C | 88% | 1016.3 hPa | 0 mm | 0.45 m/s, 146° | 0 W/m² | - |
| 1778039356 | 13.89° C | 88% | 1016.4 hPa | 0 mm | 0.45 m/s, 81° | 0 W/m² | - |
* Rain latest hour (hover to see other rain measurements)
** Current wind speed in m/s (hover to see current wind gust speed)